FW0403 Weather Reports


Display with metric or nautical units.
time (UTC)temp
F
wind
direction
speed
MPH
gust
MPH
rain 1hr
in
rain 24hr
in
rain mn
in
humidity
%
barometer
mb
20260507023728 80 167 3.0 6.0 0.00 0.00 0.00 87 1009.5
20260507023219 80 189 3.0 6.0 0.00 0.00 0.00 87 1009.5
20260507022709 80 156 4.0 9.0 0.00 0.00 0.00 87 1009.5
20260507022211 80 189 4.0 9.0 0.00 0.00 0.00 87 1009.4
20260507021650 80 161 6.0 11.0 0.00 0.00 0.00 86 1009.4
20260507021134 80 2 6.0 11.0 0.00 0.00 0.00 86 1009.4
20260507015951 80 194 8.0 11.0 0.00 0.00 0.00 86 1009.2
20260507015441 80 165 7.0 10.0 0.00 0.00 0.00 86 1009.1
20260507014940 80 194 6.0 10.0 0.00 0.00 0.00 86 1009.0
20260507014435 80 199 6.0 10.0 0.00 0.00 0.00 86 1008.9
20260507013914 80 2 6.0 10.0 0.00 0.00 0.00 86 1008.9
20260507013359 80 2 6.0 9.0 0.00 0.00 0.00 86 1008.8
20260507012856 80 188 6.0 9.0 0.00 0.00 0.00 86 1008.6
20260507012354 80 2 5.0 9.0 0.00 0.00 0.00 86 1008.6
20260507011843 80 161 4.0 9.0 0.00 0.00 0.00 85 1008.5
20260507011336 80 163 4.0 8.0 0.00 0.00 0.00 85 1008.6
20260507010823 81 177 4.0 8.0 0.00 0.00 0.00 85 1008.6
20260507005652 81 140 2.0 5.0 0.00 0.00 0.00 85 1008.3
20260507005132 81 204 2.0 5.0 0.00 0.00 0.00 85 1008.2
20260507004618 81 182 3.0 5.0 0.00 0.00 0.00 85 1008.2
20260507004123 81 2 3.0 6.0 0.00 0.00 0.00 85 1008.3
20260507003605 81 174 3.0 6.0 0.00 0.00 0.00 85 1008.2
20260507002443 81 140 3.0 6.0 0.00 0.00 0.00 84 1008.2
20260507001928 81 133 4.0 8.0 0.00 0.00 0.00 84 1008.2
20260507001408 81 199 4.0 8.0 0.00 0.00 0.00 84 1008.3
20260507000239 81 184 4.0 8.0 0.00 0.00 0.00 84 1008.2
20260506235716 81 2 4.0 7.0 0.00 0.00 0.00 84 1008.1
20260506235212 81 161 4.0 7.0 0.00 0.00 0.00 84 1008.1
20260506234719 81 2 4.0 7.0 0.00 0.00 0.00 84 1008.1
20260506234205 81 170 3.0 6.0 0.00 0.00 0.00 84 1008.1
20260506233656 82 100 3.0 5.0 0.00 0.00 0.00 84 1008.1
20260506232511 82 161 2.0 5.0 0.00 0.00 0.00 83 1007.9
20260506231949 82 164 3.0 5.0 0.00 0.00 0.00 83 1008.0
20260506231443 82 2 2.0 5.0 0.00 0.00 0.00 83 1008.0
20260506230940 82 176 2.0 6.0 0.00 0.00 0.00 83 1008.0
20260506230427 82 138 3.0 6.0 0.00 0.00 0.00 83 1008.0
20260506225920 82 188 3.0 8.0 0.00 0.00 0.00 83 1007.9
20260506225411 82 163 4.0 8.0 0.00 0.00 0.00 83 1007.8
20260506224914 82 174 4.0 8.0 0.00 0.00 0.00 83 1007.7
20260506223753 82 2 3.0 8.0 0.00 0.00 0.00 83 1007.8
20260506223234 82 2 3.0 8.0 0.00 0.00 0.00 83 1007.8
20260506222725 82 165 4.0 8.0 0.00 0.00 0.00 83 1007.7
20260506222222 82 173 4.0 8.0 0.00 0.00 0.00 82 1007.8
20260506221709 82 157 3.0 7.0 0.00 0.00 0.00 83 1007.8
20260506221201 82 171 3.0 8.0 0.00 0.00 0.00 83 1007.9
20260506220706 82 159 4.0 8.0 0.00 0.00 0.00 82 1007.8
20260506215540 82 188 5.0 9.0 0.00 0.00 0.00 83 1007.8
20260506215044 82 199 4.0 9.0 0.00 0.00 0.00 83 1007.9
20260506214550 82 117 4.0 9.0 0.00 0.00 0.00 83 1007.9
20260506214056 82 200 5.0 8.0 0.00 0.00 0.00 83 1008.0
20260506213538 82 150 5.0 8.0 0.00 0.00 0.00 83 1008.1
20260506213029 82 2 5.0 10.0 0.00 0.00 0.00 83 1008.1
20260506212516 82 161 6.0 10.0 0.00 0.00 0.00 83 1008.1
20260506211329 82 150 6.0 12.0 0.00 0.00 0.00 83 1008.2
20260506210821 82 214 6.0 12.0 0.00 0.00 0.00 82 1008.2
20260506210319 82 155 6.0 9.0 0.00 0.00 0.00 83 1008.1
20260506205802 82 150 5.0 9.0 0.00 0.00 0.00 83 1008.3
20260506205244 82 143 5.0 8.0 0.00 0.00 0.00 83 1008.3
20260506204726 82 185 5.0 11.0 0.00 0.00 0.00 84 1008.2
20260506204227 82 136 5.0 11.0 0.00 0.00 0.00 84 1008.3
20260506203706 82 128 6.0 11.0 0.00 0.00 0.00 84 1008.3
20260506202532 81 143 6.0 10.0 0.00 0.00 0.00 83 1008.3
20260506202025 81 150 6.0 10.0 0.00 0.00 0.00 83 1008.3
20260506201510 82 150 6.0 10.0 0.00 0.00 0.00 83 1008.5
20260506201001 82 169 5.0 9.0 0.00 0.00 0.00 84 1008.6
20260506200446 82 104 5.0 11.0 0.00 0.00 0.00 84 1008.6
20260506195946 82 157 5.0 11.0 0.00 0.00 0.00 84 1008.8
20260506195425 82 112 5.0 11.0 0.00 0.00 0.00 84 1008.8
20260506194917 82 92 5.0 11.0 0.00 0.00 0.00 84 1008.9
20260506194357 82 125 5.0 9.0 0.00 0.00 0.00 84 1009.0
20260506193848 82 111 5.0 9.0 0.00 0.00 0.00 84 1009.0
20260506193331 82 167 5.0 9.0 0.00 0.00 0.00 84 1009.1
20260506192813 82 2 5.0 9.0 0.00 0.00 0.00 84 1009.1
20260506192300 82 143 5.0 10.0 0.00 0.00 0.00 84 1009.2
20260506191803 82 165 5.0 10.0 0.00 0.00 0.00 84 1009.2
20260506191241 82 206 5.0 10.0 0.00 0.00 0.00 84 1009.4
20260506190725 82 194 5.0 10.0 0.00 0.00 0.00 84 1009.4
20260506185549 82 136 5.0 9.0 0.00 0.00 0.00 84 1009.4
20260506185050 82 174 5.0 9.0 0.00 0.00 0.00 84 1009.5
20260506184535 82 144 5.0 9.0 0.00 0.00 0.00 85 1009.6
20260506184015 82 152 4.0 9.0 0.00 0.00 0.00 85 1009.6
20260506183500 82 157 3.0 6.0 0.00 0.00 0.00 85 1009.6
20260506182333 81 179 1.0 5.0 0.00 0.00 0.00 85 1009.8
20260506181830 81 173 0.0 4.0 0.00 0.00 0.00 85 1009.8
20260506181322 81 130 0.0 3.0 0.00 0.00 0.00 85 1009.9
20260506180138 81 66 1.0 3.0 0.00 0.00 0.00 85 1009.9
20260506175619 81 87 1.0 3.0 0.00 0.00 0.00 85 1010.0
20260506175111 81 219 0.0 2.0 0.00 0.00 0.00 85 1009.9
20260506174604 81 116 0.0 2.0 0.00 0.00 0.00 85 1009.9
20260506173417 82 103 0.0 3.0 0.00 0.00 0.00 85 1010.2
20260506172920 82 80 0.0 4.0 0.00 0.00 0.00 85 1010.2
20260506172418 82 163 0.0 4.0 0.00 0.00 0.00 86 1010.3
20260506171915 82 55 1.0 4.0 0.00 0.00 0.00 86 1010.1
20260506171418 82 133 0.0 4.0 0.00 0.00 0.00 86 1010.1
20260506170924 81 179 0.0 4.0 0.00 0.00 0.00 86 1010.1
20260506170428 81 155 0.0 4.0 0.00 0.00 0.00 86 1010.2
20260506165930 81 210 0.0 6.0 0.00 0.00 0.00 86 1010.1
20260506164751 81 117 2.0 6.0 0.00 0.00 0.00 87 1010.1
20260506164229 81 101 2.0 6.0 0.00 0.00 0.00 87 1010.0
20260506163709 81 140 3.0 5.0 0.00 0.00 0.00 87 1010.2
20260506163212 81 151 3.0 5.0 0.00 0.00 0.00 87 1010.2
20260506162706 80 2 3.0 7.0 0.00 0.00 0.00 87 1010.2
20260506162213 80 150 3.0 7.0 0.00 0.00 0.00 87 1010.1
20260506161717 80 161 3.0 7.0 0.00 0.00 0.00 87 1010.1
20260506161222 80 161 4.0 7.0 0.00 0.00 0.00 87 1010.0
20260506160042 80 145 2.0 6.0 0.00 0.00 0.00 87 1009.9
20260506154937 80 144 3.0 6.0 0.00 0.00 0.00 87 1009.8
20260506154439 80 167 3.0 8.0 0.00 0.00 0.00 87 1009.7
20260506153928 80 2 4.0 8.0 0.00 0.00 0.00 88 1009.8
20260506153412 80 146 4.0 9.0 0.00 0.00 0.00 88 1009.6
20260506152914 80 162 4.0 9.0 0.00 0.00 0.00 88 1009.5
20260506152413 80 177 5.0 9.0 0.00 0.00 0.00 88 1009.5
20260506151916 80 195 5.0 9.0 0.00 0.00 0.00 88 1009.4
20260506151417 80 205 5.0 9.0 0.00 0.00 0.00 88 1009.3
20260506150905 80 140 5.0 9.0 0.00 0.00 0.00 88 1009.1
20260506150349 80 144 5.0 9.0 0.00 0.00 0.00 88 1009.2
20260506145850 80 157 5.0 9.0 0.00 0.00 0.00 88 1009.3
20260506145336 80 132 4.0 9.0 0.00 0.00 0.00 88 1009.3
20260506144834 79 151 5.0 9.0 0.00 0.00 0.00 88 1009.3
20260506144323 79 156 5.0 9.0 0.00 0.00 0.00 88 1009.3
20260506143808 79 124 5.0 9.0 0.00 0.00 0.00 88 1009.3
20260506142635 79 2 5.0 9.0 0.00 0.00 0.00 88 1009.3
20260506141456 79 187 4.0 9.0 0.00 0.00 0.00 88 1009.2
20260506140953 79 157 5.0 9.0 0.00 0.00 0.00 88 1009.3
20260506140434 79 2 5.0 9.0 0.00 0.00 0.00 88 1009.2
20260506135923 79 149 4.0 9.0 0.00 0.00 0.00 88 1009.2
20260506135416 79 148 4.0 6.0 0.00 0.00 0.00 88 1009.3
20260506134904 79 97 3.0 6.0 0.00 0.00 0.00 88 1009.2
20260506134408 79 153 2.0 5.0 0.00 0.00 0.00 88 1009.2
20260506133846 79 143 1.0 5.0 0.00 0.00 0.00 88 1009.3
20260506133338 79 186 0.0 3.0 0.00 0.00 0.00 88 1009.3
20260506132842 79 121 1.0 6.0 0.00 0.00 0.00 88 1009.3
20260506132324 79 171 3.0 6.0 0.00 0.00 0.00 88 1009.3
20260506131828 79 184 3.0 6.0 0.00 0.00 0.00 88 1009.3
20260506131323 79 165 3.0 6.0 0.00 0.00 0.00 88 1009.3
20260506130819 79 170 3.0 5.0 0.00 0.00 0.00 88 1009.3
20260506130314 79 180 3.0 5.0 0.00 0.00 0.00 88 1009.3
20260506125753 79 191 3.0 5.0 0.00 0.00 0.00 88 1009.4
20260506124523 79 162 3.0 7.0 0.00 0.00 0.00 88 1009.3
20260506124003 79 156 3.0 6.0 0.00 0.00 0.00 88 1009.2
20260506123447 79 130 3.0 6.0 0.00 0.00 0.00 88 1009.2
20260506122928 79 179 3.0 6.0 0.00 0.00 0.00 88 1009.1
20260506122407 79 2 4.0 8.0 0.00 0.00 0.00 88 1008.9
20260506121910 79 190 4.0 8.0 0.00 0.00 0.00 88 1008.9
20260506121400 79 197 4.0 8.0 0.00 0.00 0.00 88 1008.8
20260506120855 79 188 4.0 6.0 0.00 0.00 0.00 88 1008.7
20260506120342 79 141 4.0 6.0 0.00 0.00 0.00 88 1008.6
20260506115230 79 138 4.0 6.0 0.00 0.00 0.00 88 1008.4
20260506114717 79 165 4.0 6.0 0.00 0.00 0.00 87 1008.3
20260506113601 79 169 2.0 5.0 0.00 0.00 0.00 88 1008.2
20260506113100 79 145 3.0 5.0 0.00 0.00 0.00 88 1008.2
20260506112556 79 151 3.0 5.0 0.00 0.00 0.00 88 1008.2
20260506112052 79 150 3.0 9.0 0.00 0.00 0.00 87 1008.3
20260506110930 79 181 5.0 9.0 0.00 0.00 0.00 87 1008.2
20260506110415 79 164 5.0 9.0 0.00 0.00 0.00 87 1008.1
20260506105907 79 209 4.0 8.0 0.00 0.00 0.00 87 1008.1
20260506105407 79 2 4.0 8.0 0.00 0.00 0.00 87 1008.1
20260506104851 79 150 4.0 8.0 0.00 0.00 0.00 87 1008.0
20260506104333 79 169 4.0 8.0 0.00 0.00 0.00 87 1008.0
20260506103833 79 159 4.0 8.0 0.00 0.00 0.00 87 1008.0
20260506103322 79 171 4.0 6.0 0.00 0.00 0.00 87 1008.0
20260506102822 79 150 4.0 6.0 0.00 0.00 0.00 87 1008.0
20260506102324 79 166 4.0 8.0 0.00 0.00 0.00 87 1007.9
20260506101828 79 173 4.0 8.0 0.00 0.00 0.00 87 1007.9
20260506101316 79 174 4.0 8.0 0.00 0.00 0.00 87 1007.8
20260506100804 79 132 4.0 8.0 0.00 0.00 0.00 87 1007.8
20260506100249 79 128 4.0 9.0 0.00 0.00 0.00 87 1007.9
20260506093804 79 144 5.0 9.0 0.00 0.00 0.00 87 1007.7
20260506092643 79 165 4.0 6.0 0.00 0.00 0.00 87 1007.7
20260506092124 79 205 3.0 6.0 0.00 0.00 0.00 87 1007.8
20260506091005 79 167 3.0 6.0 0.00 0.00 0.00 87 1007.9
20260506090506 79 113 3.0 6.0 0.00 0.00 0.00 87 1008.0
20260506090010 79 182 3.0 9.0 0.00 0.00 0.00 87 1008.0
20260506085452 79 121 4.0 9.0 0.00 0.00 0.00 87 1008.1
20260506084957 79 171 5.0 9.0 0.00 0.00 0.00 87 1008.2
20260506084456 79 188 5.0 9.0 0.00 0.00 0.00 87 1008.3
20260506082710 79 2 5.0 8.0 0.00 0.00 0.00 87 1008.4
20260506082202 79 174 4.0 7.0 0.00 0.00 0.00 87 1008.3
20260506081658 79 193 3.0 7.0 0.00 0.00 0.00 87 1008.3
20260506081200 79 179 3.0 7.0 0.00 0.00 0.00 87 1008.4
20260506080705 79 182 4.0 9.0 0.00 0.00 0.00 87 1008.5
20260506080209 79 173 4.0 9.0 0.00 0.00 0.00 87 1008.5
20260506072444 79 187 5.0 9.0 0.00 0.00 0.00 87 1008.7
20260506071925 79 193 6.0 9.0 0.00 0.00 0.00 87 1008.8
20260506071412 79 2 6.0 11.0 0.00 0.00 0.00 87 1008.7
20260506070906 79 182 7.0 11.0 0.00 0.00 0.00 87 1008.7
20260506070357 79 172 7.0 11.0 0.00 0.00 0.00 87 1008.7
20260506062423 79 2 8.0 14.0 0.00 0.00 0.00 86 1008.8
20260506061901 79 183 8.0 14.0 0.00 0.00 0.00 86 1008.9
20260506061352 79 200 9.0 14.0 0.00 0.00 0.00 86 1008.7
20260506060831 79 182 9.0 14.0 0.00 0.00 0.00 87 1008.6
20260506050532 79 185 12.0 18.0 0.00 0.00 0.00 86 1008.6
20260506043600 79 170 15.0 20.0 0.00 0.00 0.00 86 1008.6
20260506043043 79 2 14.0 19.0 0.00 0.00 0.00 86 1008.6
20260506042550 79 165 13.0 17.0 0.00 0.00 0.00 86 1008.6
20260506042041 79 157 13.0 17.0 0.00 0.00 0.00 86 1008.6
20260506041533 79 172 14.0 20.0 0.00 0.00 0.00 86 1008.6
20260506040346 79 175 14.0 20.0 0.00 0.00 0.00 86 1008.8
20260506035829 79 190 14.0 18.0 0.00 0.00 0.00 86 1008.7
20260506035330 79 173 13.0 18.0 0.00 0.00 0.00 86 1008.7
20260506034832 79 165 12.0 18.0 0.00 0.00 0.00 86 1008.7
20260506034333 79 2 13.0 18.0 0.00 0.00 0.00 86 1008.8
20260506033815 79 2 12.0 17.0 0.00 0.00 0.00 86 1008.7
20260506033322 79 194 13.0 18.0 0.00 0.00 0.00 86 1008.7
20260506032816 79 2 13.0 18.0 0.00 0.00 0.00 86 1008.6
20260506032305 79 2 13.0 18.0 0.00 0.00 0.00 86 1008.7
20260506031743 79 2 13.0 18.0 0.00 0.00 0.00 86 1008.8
20260506031235 79 187 13.0 18.0 0.00 0.00 0.00 86 1008.7
20260506030726 79 2 13.0 18.0 0.00 0.00 0.00 86 1008.6
20260506030226 79 2 12.0 19.0 0.00 0.00 0.00 86 1008.5
20260506025039 79 165 13.0 20.0 0.00 0.00 0.00 86 1008.3